User: anonymous   Login
Location: Gairloch Mountain Observatory
(46.1383°N, 60.9640°W)
Time: 22:37:26
(UTC-03:00)
Language:

CENTAUR R/B - Orbit

View from above orbital plane
View from above orbital plane
View from above satellite
View from above satellite

Ground track
Ground track

The orbit data is extracted from the following two-line orbital elements,

1 26906U 01040B   17110.05486622 0.00000050  00000-0  59319-4 0    00
2 26906  63.4525 122.3948 0353000 342.2788  17.7212 13.44009238    08
Epoch (UTC): 20 April 2017 01:19:00
Eccentricity: 0.0353000
inclination: 63.4525°
perigee height: 830 km
apogee height: 1358 km
right ascension of ascending node: 122.3948°
argument of perigee: 342.2788°
revolutions per day: 13.44009238
mean anomaly at epoch: 17.7212°
orbit number at epoch: 0

The dashed part of the orbit path shows where the satellite is in the earth's shadow,  

DLR